Location: Township of Marena
(38.1747°N, 99.6798°W)
Time: 14:29:34
(UTC+00:00)

Milstar 3 - Pass Details

Date: 26 October 2020
Orbit: 1101 x 5144 km, 28.2° (Epoch: 25 September)

Event Time Altitude Azimuth Distance (km) Brightness Sun altitude
Rises 01:22:32 0° 252° (WSW) 4,193 7.2 -19.4°
Reaches altitude 10° 01:25:38 10° 244° (WSW) 3,047 6.0 -20.0°
Maximum altitude 01:31:50 38° 177° (S) 1,621 3.6 -21.2°
Enters shadow 01:34:44 27° 132° (SE) 2,063 3.8 -21.8°
